Weather History for Clinton-Sherman, OK

Change the Weather History Date:

Monday, June 3, 2013

  Actual Average Record
Temperature  
Mean Temperature 75 °F -  
Max Temperature 91 °F 83 °F 108 °F (2008)
Min Temperature 59 °F 60 °F 57 °F (1997)
Cooling Degree Days 10    
Growing Degree Days 25 (Base 50)    
Moisture  
Dew Point 54 °F    
Average Humidity 52    
Maximum Humidity 78    
Minimum Humidity 27    
Precipitation  
Precipitation 0.00 in - - ()
Sea Level Pressure  
Sea Level Pressure 29.86 in    
Wind  
Wind Speed 15 mph (SSE)    
Max Wind Speed 25 mph    
Max Gust Speed 36 mph    
Visibility 10 miles    
Events      
Averages and records for this station are not official NWS values.
T = Trace of Precipitation, MM = Missing Value Source: NWS Daily Summary

Daily Weather History Graph

Daily Weather History Graph

Search for Another Location

Airport:

Trip Planner

Search our weather history database for the weather conditions in past years. The results will help you decide how hot, cold, wet, or windy it might be!

Date:

Astronomy

Jun. 03, 2013 Rise Set
Actual Time 6:22 AM CDT 8:47 PM CDT
Civil Twilight 5:53 AM CDT 9:17 PM CDT
Nautical Twilight 5:16 AM CDT 9:53 PM CDT
Astronomical Twilight 4:36 AM CDT 10:33 PM CDT
Moon 3:11 AM CDT (6/3) 4:27 PM CDT (6/3)
Length of Visible Light 15h 24m
Length of Day
14h 25m
Waning Crescent, 22% of the Moon is Illuminated
Jun 3
Waning Crescent
Jun 8
New
Jun 16
First Quarter
Jun 23
Full
Jun 29
Last Quarter

Hourly Weather History & Observations

Time (CDT) Temp. Heat Index Dew Point Humidity Pressure Visibility Wind Dir Wind Speed Gust Speed Precip Events Conditions
12:53 AM 63.0 °F - 50.0 °F 63% 29.99 in 10.0 mi SE 12.7 mph - N/A   Clear
1:53 AM 62.1 °F - 48.9 °F 62% 29.97 in 10.0 mi SE 13.8 mph - N/A   Clear
2:53 AM 61.0 °F - 48.9 °F 64% 29.95 in 10.0 mi SE 11.5 mph - N/A   Clear
3:53 AM 61.0 °F - 51.1 °F 70% 29.94 in 10.0 mi SSE 11.5 mph - N/A   Clear
4:53 AM 60.1 °F - 51.1 °F 72% 29.94 in 10.0 mi SSE 9.2 mph - N/A   Clear
5:53 AM 59.0 °F - 51.1 °F 75% 29.93 in 10.0 mi South 8.1 mph - N/A   Clear
6:53 AM 61.0 °F - 54.0 °F 78% 29.94 in 10.0 mi SSE 11.5 mph - N/A   Clear
7:53 AM 62.1 °F - 55.0 °F 78% 29.94 in 10.0 mi SSE 15.0 mph - N/A   Clear
8:53 AM 64.9 °F - 55.0 °F 70% 29.96 in 10.0 mi SSE 13.8 mph - N/A   Clear
9:53 AM 69.1 °F - 55.0 °F 61% 29.95 in 10.0 mi South 18.4 mph - N/A   Clear
10:53 AM 72.0 °F - 55.0 °F 55% 29.93 in 10.0 mi SSE 17.3 mph - N/A   Clear
11:53 AM 78.1 °F - 54.0 °F 43% 29.91 in 10.0 mi SSE 17.3 mph 26.5 mph N/A   Clear
12:53 PM 82.9 °F 82.0 °F 55.0 °F 38% 29.88 in 10.0 mi South 21.9 mph 28.8 mph N/A   Clear
1:53 PM 84.9 °F 83.6 °F 55.0 °F 36% 29.85 in 10.0 mi South 24.2 mph 32.2 mph N/A   Clear
2:53 PM 87.1 °F 85.3 °F 55.0 °F 33% 29.82 in 10.0 mi South 17.3 mph 35.7 mph N/A   Clear
3:53 PM 89.1 °F 86.9 °F 54.0 °F 30% 29.79 in 10.0 mi South 19.6 mph 28.8 mph N/A   Clear
4:53 PM 90.0 °F 87.5 °F 53.1 °F 28% 29.76 in 10.0 mi SSE 21.9 mph 28.8 mph N/A   Clear
5:53 PM 91.0 °F 88.5 °F 53.1 °F 27% 29.74 in 10.0 mi South 21.9 mph 32.2 mph N/A   Clear
6:53 PM 89.1 °F 86.9 °F 54.0 °F 30% 29.73 in 10.0 mi SE 25.3 mph 33.4 mph N/A   Clear
7:53 PM 84.9 °F 83.7 °F 55.9 °F 37% 29.72 in 10.0 mi SE 21.9 mph - N/A   Clear
8:53 PM 80.1 °F 80.4 °F 57.0 °F 45% 29.73 in 10.0 mi SE 18.4 mph - N/A   Clear
9:53 PM 78.1 °F - 55.9 °F 46% 29.73 in 10.0 mi SSE 21.9 mph 27.6 mph N/A   Clear
10:53 PM 77.0 °F - 54.0 °F 45% 29.73 in 10.0 mi SSE 24.2 mph 32.2 mph N/A   Clear
11:53 PM 75.0 °F - 57.0 °F 53% 29.87 in 10.0 mi North 21.9 mph 31.1 mph N/A   Scattered Clouds